| time (UTC) | temp F | wind direction | speed MPH | gust MPH | rain 1hr in | rain 24hr in | rain mn in | humidity % | barometer mb |
| 20260510111318 | 51 | 310 | 0.0 | 0.0 | 0.00 | 0.34 | 0.00 | 97 | 1011.6 |
| 20260510110819 | 51 | 310 | 0.0 | 0.0 | 0.00 | 0.34 | 0.00 | 97 | 1011.6 |
| 20260510110323 | 50 | 312 | 0.0 | 0.0 | 0.00 | 0.34 | 0.00 | 97 | 1011.6 |
| 20260510105840 | 50 | 312 | 0.0 | 2.0 | 0.00 | 0.34 | 0.00 | 97 | 1011.5 |
| 20260510105342 | 50 | 312 | 0.0 | 2.0 | 0.00 | 0.34 | 0.00 | 97 | 1011.5 |
| 20260510104823 | 50 | 312 | 0.0 | 0.0 | 0.00 | 0.34 | 0.00 | 97 | 1011.6 |
| 20260510104322 | 50 | 312 | 0.0 | 0.0 | 0.00 | 0.34 | 0.00 | 97 | 1011.5 |
| 20260510103820 | 50 | 312 | 0.0 | 0.0 | 0.00 | 0.34 | 0.00 | 97 | 1011.2 |
| 20260510103338 | 50 | 312 | 0.0 | 0.0 | 0.00 | 0.34 | 0.00 | 97 | 1011.3 |
| 20260510102813 | 50 | 312 | 0.0 | 0.0 | 0.00 | 0.34 | 0.00 | 97 | 1011.2 |
| 20260510102311 | 50 | 312 | 0.0 | 0.0 | 0.00 | 0.34 | 0.00 | 97 | 1011.1 |
| 20260510101836 | 50 | 312 | 0.0 | 0.0 | 0.00 | 0.34 | 0.00 | 97 | 1011.2 |
| 20260510101316 | 50 | 312 | 0.0 | 0.0 | 0.00 | 0.34 | 0.00 | 97 | 1011.2 |
| 20260510100836 | 50 | 312 | 0.0 | 0.0 | 0.00 | 0.34 | 0.00 | 97 | 1011.3 |
| 20260510100317 | 50 | 312 | 0.0 | 0.0 | 0.00 | 0.34 | 0.00 | 97 | 1011.1 |
| 20260510095816 | 50 | 312 | 0.0 | 0.0 | 0.00 | 0.34 | 0.00 | 97 | 1011.0 |
| 20260510095318 | 50 | 312 | 0.0 | 0.0 | 0.00 | 0.34 | 0.00 | 97 | 1011.1 |
| 20260510094820 | 50 | 312 | 0.0 | 0.0 | 0.00 | 0.34 | 0.00 | 97 | 1011.3 |
| 20260510094323 | 50 | 312 | 0.0 | 0.0 | 0.00 | 0.34 | 0.00 | 97 | 1011.3 |
| 20260510093821 | 50 | 312 | 0.0 | 0.0 | 0.00 | 0.34 | 0.00 | 97 | 1011.3 |
| 20260510093324 | 50 | 312 | 0.0 | 0.0 | 0.00 | 0.34 | 0.00 | 97 | 1011.3 |
| 20260510092821 | 50 | 312 | 0.0 | 0.0 | 0.00 | 0.34 | 0.00 | 97 | 1011.1 |
| 20260510092338 | 50 | 312 | 0.0 | 0.0 | 0.00 | 0.34 | 0.00 | 97 | 1011.1 |
| 20260510091833 | 50 | 312 | 0.0 | 0.0 | 0.00 | 0.34 | 0.00 | 97 | 1011.1 |
| 20260510091314 | 50 | 312 | 0.0 | 0.0 | 0.00 | 0.34 | 0.00 | 97 | 1011.2 |
| 20260510090837 | 50 | 312 | 0.0 | 0.0 | 0.00 | 0.34 | 0.00 | 97 | 1011.2 |
| 20260510090315 | 50 | 312 | 0.0 | 0.0 | 0.00 | 0.34 | 0.00 | 97 | 1011.2 |
| 20260510085816 | 50 | 312 | 0.0 | 0.0 | 0.00 | 0.34 | 0.00 | 97 | 1011.3 |
| 20260510085334 | 50 | 312 | 0.0 | 0.0 | 0.00 | 0.34 | 0.00 | 97 | 1011.5 |
| 20260510084838 | 50 | 312 | 0.0 | 0.0 | 0.00 | 0.34 | 0.00 | 97 | 1011.7 |
| 20260510084313 | 50 | 312 | 0.0 | 2.0 | 0.00 | 0.34 | 0.00 | 97 | 1011.7 |
| 20260510083820 | 50 | 312 | 0.0 | 4.0 | 0.00 | 0.34 | 0.00 | 97 | 1011.6 |
| 20260510083318 | 50 | 325 | 0.0 | 4.0 | 0.00 | 0.34 | 0.00 | 97 | 1011.6 |
| 20260510082820 | 50 | 323 | 1.0 | 4.0 | 0.00 | 0.34 | 0.00 | 97 | 1011.6 |
| 20260510082339 | 50 | 323 | 1.0 | 4.0 | 0.00 | 0.34 | 0.00 | 97 | 1011.6 |
| 20260510081840 | 50 | 321 | 1.0 | 6.0 | 0.00 | 0.34 | 0.00 | 97 | 1011.6 |
| 20260510081339 | 50 | 329 | 3.0 | 6.0 | 0.00 | 0.34 | 0.00 | 97 | 1011.7 |
| 20260510080818 | 50 | 327 | 3.0 | 6.0 | 0.00 | 0.34 | 0.00 | 97 | 1011.4 |
| 20260510080323 | 50 | 330 | 2.0 | 8.0 | 0.00 | 0.34 | 0.00 | 97 | 1011.2 |
| 20260510075822 | 50 | 9 | 4.0 | 8.0 | 0.00 | 0.34 | 0.00 | 97 | 1011.5 |
| 20260510075322 | 50 | 303 | 1.0 | 8.0 | 0.00 | 0.34 | 0.00 | 97 | 1011.2 |
| 20260510074822 | 50 | 336 | 3.0 | 8.0 | 0.00 | 0.34 | 0.00 | 97 | 1011.2 |
| 20260510074321 | 50 | 320 | 0.0 | 0.0 | 0.00 | 0.34 | 0.00 | 97 | 1010.7 |
| 20260510073817 | 50 | 320 | 0.0 | 0.0 | 0.00 | 0.34 | 0.00 | 97 | 1010.8 |
| 20260510073315 | 50 | 320 | 0.0 | 3.0 | 0.00 | 0.34 | 0.00 | 96 | 1010.8 |
| 20260510072814 | 50 | 320 | 1.0 | 3.0 | 0.00 | 0.34 | 0.00 | 96 | 1010.7 |
| 20260510072338 | 50 | 315 | 0.0 | 2.0 | 0.00 | 0.34 | 0.00 | 96 | 1010.7 |
| 20260510071834 | 50 | 315 | 0.0 | 3.0 | 0.00 | 0.34 | 0.00 | 96 | 1010.5 |
| 20260510071316 | 50 | 233 | 0.0 | 3.0 | 0.00 | 0.34 | 0.00 | 96 | 1010.6 |
| 20260510070814 | 50 | 341 | 0.0 | 3.0 | 0.00 | 0.34 | 0.00 | 96 | 1010.7 |
| 20260510070318 | 50 | 347 | 2.0 | 3.0 | 0.00 | 0.34 | 0.00 | 97 | 1010.7 |
| 20260510065835 | 50 | 344 | 1.0 | 3.0 | 0.00 | 0.34 | 0.00 | 96 | 1010.7 |
| 20260510065322 | 50 | 281 | 1.0 | 3.0 | 0.00 | 0.34 | 0.00 | 96 | 1010.7 |
| 20260510064818 | 51 | 277 | 0.0 | 2.0 | 0.00 | 0.34 | 0.00 | 96 | 1010.8 |
| 20260510064322 | 51 | 5 | 0.0 | 4.0 | 0.00 | 0.34 | 0.00 | 96 | 1010.8 |
| 20260510063818 | 51 | 289 | 1.0 | 4.0 | 0.00 | 0.34 | 0.00 | 96 | 1010.8 |
| 20260510063343 | 51 | 313 | 0.0 | 4.0 | 0.00 | 0.34 | 0.00 | 96 | 1010.8 |
| 20260510062819 | 51 | 319 | 0.0 | 4.0 | 0.00 | 0.34 | 0.00 | 96 | 1010.9 |
| 20260510062321 | 51 | 322 | 0.0 | 3.0 | 0.00 | 0.34 | 0.00 | 96 | 1010.9 |
| 20260510061823 | 51 | 326 | 1.0 | 3.0 | 0.00 | 0.34 | 0.00 | 96 | 1010.8 |
| 20260510061326 | 51 | 323 | 2.0 | 3.0 | 0.00 | 0.34 | 0.00 | 96 | 1010.8 |
| 20260510060822 | 51 | 325 | 2.0 | 3.0 | 0.00 | 0.34 | 0.00 | 96 | 1010.8 |
| 20260510060346 | 51 | 355 | 0.0 | 2.0 | 0.00 | 0.34 | 0.00 | 96 | 1010.8 |
| 20260510055821 | 51 | 360 | 1.0 | 2.0 | 0.00 | 0.34 | 0.00 | 96 | 1010.6 |
| 20260510055316 | 51 | 15 | 0.0 | 0.0 | 0.00 | 0.34 | 0.00 | 96 | 1010.6 |
| 20260510054813 | 51 | 15 | 0.0 | 0.0 | 0.00 | 0.34 | 0.00 | 96 | 1010.7 |
| 20260510054338 | 51 | 15 | 0.0 | 0.0 | 0.00 | 0.34 | 0.00 | 96 | 1010.7 |
| 20260510053837 | 51 | 15 | 0.0 | 0.0 | 0.00 | 0.34 | 0.00 | 96 | 1010.6 |
| 20260510053318 | 51 | 15 | 0.0 | 0.0 | 0.00 | 0.34 | 0.00 | 96 | 1010.7 |
| 20260510052816 | 51 | 15 | 0.0 | 0.0 | 0.00 | 0.34 | 0.00 | 96 | 1010.7 |
| 20260510052339 | 51 | 15 | 0.0 | 0.0 | 0.00 | 0.34 | 0.00 | 96 | 1010.6 |
| 20260510051814 | 51 | 19 | 0.0 | 0.0 | 0.00 | 0.34 | 0.00 | 96 | 1010.7 |
| 20260510051319 | 51 | 19 | 0.0 | 0.0 | 0.00 | 0.34 | 0.00 | 96 | 1010.7 |
| 20260510050820 | 51 | 19 | 0.0 | 0.0 | 0.00 | 0.34 | 0.00 | 96 | 1010.8 |
| 20260510050323 | 51 | 19 | 0.0 | 0.0 | 0.00 | 0.34 | 0.00 | 96 | 1010.9 |
| 20260510045821 | 51 | 19 | 0.0 | 2.0 | 0.00 | 0.34 | 0.00 | 96 | 1010.9 |
| 20260510045339 | 51 | 19 | 0.0 | 2.0 | 0.00 | 0.34 | 0.00 | 96 | 1010.9 |
| 20260510044814 | 51 | 61 | 0.0 | 0.0 | 0.00 | 0.34 | 0.00 | 96 | 1010.8 |
| 20260510044333 | 51 | 74 | 0.0 | 0.0 | 0.00 | 0.34 | 0.00 | 96 | 1010.8 |
| 20260510043814 | 51 | 74 | 0.0 | 0.0 | 0.00 | 0.34 | 0.00 | 96 | 1010.9 |
| 20260510043315 | 51 | 74 | 0.0 | 0.0 | 0.00 | 0.34 | 0.00 | 96 | 1010.8 |
| 20260510042837 | 51 | 74 | 0.0 | 0.0 | 0.00 | 0.34 | 0.00 | 96 | 1010.9 |
| 20260510042316 | 51 | 74 | 0.0 | 0.0 | 0.00 | 0.34 | 0.00 | 96 | 1011.0 |
| 20260510041816 | 51 | 59 | 0.0 | 0.0 | 0.00 | 0.34 | 0.00 | 96 | 1010.9 |
| 20260510041317 | 51 | 59 | 0.0 | 0.0 | 0.00 | 0.34 | 0.00 | 96 | 1010.9 |
| 20260510040820 | 51 | 59 | 0.0 | 0.0 | 0.00 | 0.34 | 0.00 | 96 | 1010.8 |
| 20260510040321 | 51 | 59 | 0.0 | 0.0 | 0.00 | 0.34 | 0.00 | 96 | 1010.8 |
| 20260510035820 | 51 | 59 | 0.0 | 0.0 | 0.00 | 0.34 | 0.34 | 96 | 1010.8 |
| 20260510035320 | 51 | 59 | 0.0 | 0.0 | 0.00 | 0.34 | 0.34 | 96 | 1010.8 |
| 20260510034819 | 51 | 59 | 0.0 | 0.0 | 0.00 | 0.34 | 0.34 | 96 | 1010.8 |
| 20260510034319 | 50 | 59 | 0.0 | 0.0 | 0.00 | 0.34 | 0.34 | 96 | 1010.8 |
| 20260510033820 | 50 | 59 | 0.0 | 0.0 | 0.00 | 0.34 | 0.34 | 96 | 1010.8 |
| 20260510033321 | 50 | 59 | 0.0 | 0.0 | 0.00 | 0.34 | 0.34 | 96 | 1010.7 |
| 20260510032835 | 50 | 59 | 0.0 | 0.0 | 0.00 | 0.34 | 0.34 | 96 | 1010.7 |
| 20260510032312 | 50 | 59 | 0.0 | 0.0 | 0.00 | 0.34 | 0.34 | 96 | 1010.6 |
| 20260510031815 | 50 | 59 | 0.0 | 0.0 | 0.00 | 0.34 | 0.34 | 96 | 1010.7 |
| 20260510031311 | 50 | 59 | 0.0 | 0.0 | 0.00 | 0.34 | 0.34 | 96 | 1010.6 |
| 20260510030836 | 50 | 59 | 0.0 | 0.0 | 0.00 | 0.34 | 0.34 | 96 | 1010.4 |
| 20260510030312 | 50 | 59 | 0.0 | 0.0 | 0.00 | 0.34 | 0.34 | 96 | 1010.4 |
| 20260510025818 | 50 | 59 | 0.0 | 0.0 | 0.00 | 0.34 | 0.34 | 96 | 1010.5 |
| 20260510025317 | 50 | 59 | 0.0 | 1.0 | 0.00 | 0.34 | 0.34 | 95 | 1010.4 |
| 20260510024819 | 50 | 59 | 0.0 | 1.0 | 0.00 | 0.34 | 0.34 | 95 | 1010.4 |
| 20260510024337 | 50 | 59 | 0.0 | 0.0 | 0.00 | 0.34 | 0.34 | 95 | 1010.4 |
| 20260510023819 | 50 | 88 | 0.0 | 0.0 | 0.00 | 0.34 | 0.34 | 95 | 1010.4 |
| 20260510023315 | 50 | 88 | 0.0 | 0.0 | 0.00 | 0.34 | 0.34 | 95 | 1010.4 |
| 20260510022815 | 50 | 88 | 0.0 | 0.0 | 0.00 | 0.34 | 0.34 | 96 | 1010.5 |
| 20260510022312 | 50 | 88 | 0.0 | 0.0 | 0.00 | 0.34 | 0.34 | 95 | 1010.5 |
| 20260510021811 | 50 | 88 | 0.0 | 0.0 | 0.00 | 0.34 | 0.34 | 95 | 1010.5 |
| 20260510021333 | 50 | 88 | 0.0 | 0.0 | 0.00 | 0.34 | 0.34 | 95 | 1010.5 |
| 20260510020812 | 50 | 88 | 0.0 | 0.0 | 0.00 | 0.34 | 0.34 | 95 | 1010.6 |
| 20260510020312 | 50 | 88 | 0.0 | 0.0 | 0.00 | 0.34 | 0.34 | 95 | 1010.5 |
| 20260510015812 | 50 | 88 | 0.0 | 0.0 | 0.00 | 0.34 | 0.34 | 95 | 1010.5 |
| 20260510015334 | 50 | 88 | 0.0 | 0.0 | 0.00 | 0.34 | 0.34 | 95 | 1010.5 |
| 20260510014816 | 51 | 88 | 0.0 | 0.0 | 0.00 | 0.34 | 0.34 | 95 | 1010.5 |
| 20260510014337 | 51 | 88 | 0.0 | 0.0 | 0.00 | 0.34 | 0.34 | 95 | 1010.5 |
| 20260510013816 | 51 | 88 | 0.0 | 0.0 | 0.00 | 0.34 | 0.34 | 95 | 1010.5 |
| 20260510013337 | 51 | 88 | 0.0 | 0.0 | 0.00 | 0.34 | 0.34 | 95 | 1010.4 |
| 20260510012817 | 51 | 88 | 0.0 | 0.0 | 0.00 | 0.34 | 0.34 | 95 | 1010.6 |
| 20260510012313 | 51 | 88 | 0.0 | 0.0 | 0.00 | 0.34 | 0.34 | 95 | 1010.6 |
| 20260510011839 | 51 | 88 | 0.0 | 0.0 | 0.00 | 0.34 | 0.34 | 95 | 1010.4 |
| 20260510011314 | 51 | 88 | 0.0 | 0.0 | 0.00 | 0.34 | 0.34 | 94 | 1010.3 |
| 20260510010820 | 52 | 88 | 0.0 | 0.0 | 0.00 | 0.34 | 0.34 | 94 | 1010.3 |
| 20260510010339 | 52 | 87 | 0.0 | 0.0 | 0.00 | 0.34 | 0.34 | 94 | 1010.3 |
| 20260510005840 | 52 | 86 | 0.0 | 0.0 | 0.00 | 0.34 | 0.34 | 94 | 1010.2 |
| 20260510005319 | 52 | 86 | 0.0 | 0.0 | 0.00 | 0.34 | 0.34 | 94 | 1010.0 |
| 20260510004819 | 52 | 86 | 0.0 | 0.0 | 0.00 | 0.34 | 0.34 | 94 | 1010.0 |
| 20260510004319 | 52 | 86 | 0.0 | 0.0 | 0.00 | 0.34 | 0.34 | 94 | 1010.0 |
| 20260510003822 | 53 | 86 | 0.0 | 0.0 | 0.00 | 0.34 | 0.34 | 94 | 1009.9 |
| 20260510003320 | 53 | 86 | 0.0 | 0.0 | 0.00 | 0.34 | 0.34 | 94 | 1009.9 |
| 20260510002826 | 53 | 86 | 0.0 | 0.0 | 0.00 | 0.34 | 0.34 | 94 | 1009.9 |
| 20260510002319 | 53 | 86 | 0.0 | 0.0 | 0.00 | 0.34 | 0.34 | 94 | 1009.9 |
| 20260510001843 | 53 | 86 | 0.0 | 0.0 | 0.00 | 0.34 | 0.34 | 94 | 1009.9 |
| 20260510001323 | 54 | 86 | 0.0 | 0.0 | 0.00 | 0.34 | 0.34 | 94 | 1009.9 |
| 20260510000842 | 54 | 86 | 0.0 | 0.0 | 0.00 | 0.34 | 0.34 | 94 | 1010.0 |
| 20260510000341 | 54 | 86 | 0.0 | 0.0 | 0.00 | 0.34 | 0.34 | 94 | 1010.0 |
| 20260509235814 | 54 | 86 | 0.0 | 0.0 | 0.00 | 0.34 | 0.34 | 94 | 1010.0 |
| 20260509235315 | 54 | 86 | 0.0 | 0.0 | 0.00 | 0.34 | 0.34 | 94 | 1009.9 |
| 20260509234814 | 54 | 86 | 0.0 | 0.0 | 0.00 | 0.34 | 0.34 | 94 | 1009.8 |
| 20260509234315 | 54 | 86 | 0.0 | 0.0 | 0.00 | 0.34 | 0.34 | 94 | 1009.7 |
| 20260509233816 | 54 | 86 | 0.0 | 0.0 | 0.00 | 0.34 | 0.34 | 94 | 1009.6 |
| 20260509233316 | 54 | 86 | 0.0 | 0.0 | 0.00 | 0.34 | 0.34 | 93 | 1009.5 |
| 20260509232817 | 54 | 86 | 0.0 | 0.0 | 0.00 | 0.34 | 0.34 | 94 | 1009.5 |
| 20260509232318 | 54 | 86 | 0.0 | 0.0 | 0.00 | 0.34 | 0.34 | 93 | 1009.5 |
| 20260509231819 | 54 | 86 | 0.0 | 0.0 | 0.00 | 0.34 | 0.34 | 93 | 1009.5 |
| 20260509231318 | 54 | 86 | 0.0 | 2.0 | 0.00 | 0.34 | 0.34 | 93 | 1009.6 |
| 20260509230841 | 54 | 76 | 0.0 | 2.0 | 0.00 | 0.34 | 0.34 | 93 | 1009.5 |
| 20260509230342 | 54 | 245 | 0.0 | 1.0 | 0.00 | 0.34 | 0.34 | 93 | 1009.5 |
| 20260509225820 | 55 | 245 | 0.0 | 1.0 | 0.00 | 0.34 | 0.34 | 93 | 1009.6 |
| 20260509225322 | 55 | 232 | 0.0 | 1.0 | 0.00 | 0.34 | 0.34 | 93 | 1009.6 |
| 20260509224824 | 55 | 232 | 0.0 | 1.0 | 0.00 | 0.34 | 0.34 | 94 | 1009.7 |
| 20260509224343 | 55 | 278 | 0.0 | 0.0 | 0.00 | 0.34 | 0.34 | 94 | 1009.7 |
| 20260509223838 | 55 | 240 | 0.0 | 0.0 | 0.00 | 0.34 | 0.34 | 94 | 1009.7 |
| 20260509223314 | 55 | 294 | 0.0 | 0.0 | 0.00 | 0.34 | 0.34 | 93 | 1009.8 |
| 20260509222830 | 55 | 294 | 0.0 | 1.0 | 0.00 | 0.34 | 0.34 | 94 | 1009.9 |
| 20260509222326 | 55 | 294 | 0.0 | 1.0 | 0.00 | 0.34 | 0.34 | 94 | 1009.9 |
| 20260509221822 | 55 | 343 | 0.0 | 0.0 | 0.01 | 0.34 | 0.34 | 94 | 1010.0 |
| 20260509221339 | 55 | 343 | 0.0 | 1.0 | 0.01 | 0.34 | 0.34 | 94 | 1010.0 |
| 20260509220815 | 54 | 343 | 0.0 | 1.0 | 0.03 | 0.34 | 0.34 | 93 | 1009.9 |
| 20260509220316 | 55 | 140 | 0.0 | 0.0 | 0.05 | 0.34 | 0.34 | 94 | 1009.9 |
| 20260509215812 | 55 | 138 | 0.0 | 2.0 | 0.06 | 0.34 | 0.34 | 93 | 1010.0 |
| 20260509215328 | 55 | 153 | 0.0 | 2.0 | 0.08 | 0.34 | 0.34 | 93 | 1010.0 |
| 20260509214825 | 55 | 113 | 0.0 | 0.0 | 0.09 | 0.34 | 0.34 | 94 | 1010.0 |
| 20260509214323 | 55 | 116 | 0.0 | 0.0 | 0.10 | 0.34 | 0.34 | 93 | 1009.9 |
| 20260509213817 | 54 | 92 | 0.0 | 0.0 | 0.10 | 0.34 | 0.34 | 93 | 1010.0 |
| 20260509213314 | 54 | 13 | 0.0 | 0.0 | 0.11 | 0.34 | 0.34 | 93 | 1010.1 |
| 20260509212813 | 54 | 13 | 0.0 | 0.0 | 0.12 | 0.34 | 0.34 | 93 | 1010.1 |
| 20260509212332 | 54 | 13 | 0.0 | 0.0 | 0.13 | 0.34 | 0.34 | 93 | 1009.8 |
| 20260509211827 | 54 | 285 | 0.0 | 0.0 | 0.13 | 0.33 | 0.33 | 93 | 1010.1 |
| 20260509211323 | 54 | 313 | 0.0 | 0.0 | 0.14 | 0.32 | 0.32 | 92 | 1009.8 |
| 20260509210820 | 54 | 313 | 0.0 | 0.0 | 0.12 | 0.30 | 0.30 | 92 | 1010.0 |
| 20260509210317 | 54 | 313 | 0.0 | 1.0 | 0.12 | 0.29 | 0.29 | 92 | 1009.8 |
| 20260509205812 | 54 | 313 | 0.0 | 1.0 | 0.12 | 0.28 | 0.28 | 92 | 1009.9 |
| 20260509205312 | 54 | 313 | 0.0 | 2.0 | 0.10 | 0.26 | 0.26 | 92 | 1009.8 |
| 20260509204829 | 54 | 313 | 1.0 | 2.0 | 0.10 | 0.25 | 0.25 | 91 | 1009.8 |
| 20260509204326 | 54 | 347 | 0.0 | 2.0 | 0.09 | 0.24 | 0.24 | 91 | 1009.8 |
| 20260509203823 | 54 | 346 | 0.0 | 2.0 | 0.10 | 0.24 | 0.24 | 91 | 1009.7 |
| 20260509203320 | 54 | 342 | 1.0 | 4.0 | 0.10 | 0.23 | 0.23 | 91 | 1009.9 |
| 20260509202815 | 54 | 342 | 2.0 | 5.0 | 0.11 | 0.22 | 0.22 | 91 | 1009.8 |
| 20260509202311 | 54 | 349 | 0.0 | 5.0 | 0.10 | 0.21 | 0.21 | 90 | 1010.0 |
| 20260509201813 | 54 | 309 | 0.0 | 3.0 | 0.11 | 0.20 | 0.20 | 90 | 1010.1 |
| 20260509201328 | 54 | 340 | 1.0 | 3.0 | 0.12 | 0.18 | 0.18 | 90 | 1010.0 |
| 20260509200825 | 54 | 226 | 0.0 | 7.0 | 0.11 | 0.17 | 0.17 | 90 | 1010.1 |
| 20260509200321 | 54 | 269 | 2.0 | 8.0 | 0.12 | 0.17 | 0.17 | 90 | 1010.2 |
| 20260509195818 | 54 | 281 | 1.0 | 5.0 | 0.12 | 0.16 | 0.16 | 90 | 1010.3 |
| 20260509195315 | 54 | 317 | 1.0 | 5.0 | 0.13 | 0.16 | 0.16 | 90 | 1010.4 |
| 20260509194811 | 54 | 332 | 1.0 | 4.0 | 0.12 | 0.15 | 0.15 | 90 | 1010.5 |
| 20260509194311 | 54 | 278 | 1.0 | 3.0 | 0.12 | 0.15 | 0.15 | 90 | 1010.4 |
| 20260509193828 | 54 | 265 | 1.0 | 6.0 | 0.12 | 0.14 | 0.14 | 90 | 1010.4 |
| 20260509193325 | 54 | 22 | 2.0 | 6.0 | 0.11 | 0.13 | 0.13 | 90 | 1010.6 |
| 20260509192820 | 54 | 289 | 1.0 | 5.0 | 0.09 | 0.11 | 0.11 | 90 | 1010.5 |
| 20260509192337 | 54 | 355 | 2.0 | 5.0 | 0.08 | 0.10 | 0.10 | 89 | 1010.6 |
| 20260509191813 | 55 | 227 | 2.0 | 4.0 | 0.06 | 0.08 | 0.08 | 89 | 1010.4 |
| 20260509191329 | 55 | 267 | 1.0 | 5.0 | 0.05 | 0.06 | 0.06 | 89 | 1010.7 |
| 20260509190826 | 55 | 286 | 2.0 | 5.0 | 0.05 | 0.06 | 0.06 | 88 | 1010.7 |
| 20260509190327 | 55 | 277 | 0.0 | 7.0 | 0.04 | 0.05 | 0.05 | 88 | 1010.6 |
| 20260509185822 | 55 | 277 | 1.0 | 5.0 | 0.04 | 0.04 | 0.04 | 88 | 1010.6 |
| 20260509185320 | 55 | 333 | 1.0 | 4.0 | 0.03 | 0.03 | 0.03 | 88 | 1010.6 |
| 20260509184816 | 55 | 328 | 1.0 | 4.0 | 0.03 | 0.03 | 0.03 | 88 | 1010.5 |
| 20260509184313 | 56 | 294 | 1.0 | 3.0 | 0.03 | 0.03 | 0.03 | 88 | 1010.6 |
| 20260509183829 | 55 | 17 | 0.0 | 6.0 | 0.02 | 0.02 | 0.02 | 87 | 1010.4 |
| 20260509183346 | 55 | 204 | 2.0 | 10.0 | 0.02 | 0.02 | 0.02 | 86 | 1010.3 |
| 20260509182824 | 55 | 347 | 6.0 | 10.0 | 0.02 | 0.02 | 0.02 | 85 | 1010.2 |
| 20260509182322 | 56 | 360 | 3.0 | 10.0 | 0.02 | 0.02 | 0.02 | 84 | 1010.6 |
| 20260509181818 | 56 | 306 | 3.0 | 10.0 | 0.02 | 0.02 | 0.02 | 84 | 1010.8 |
| 20260509181314 | 57 | 330 | 2.0 | 5.0 | 0.01 | 0.01 | 0.01 | 84 | 1010.9 |
| 20260509180811 | 57 | 355 | 1.0 | 8.0 | 0.01 | 0.01 | 0.01 | 82 | 1011.0 |
| 20260509180328 | 58 | 234 | 2.0 | 8.0 | 0.00 | 0.00 | 0.00 | 80 | 1011.2 |
| 20260509175845 | 58 | 350 | 2.0 | 9.0 | 0.00 | 0.00 | 0.00 | 79 | 1011.2 |
| 20260509175319 | 59 | 324 | 2.0 | 9.0 | 0.00 | 0.00 | 0.00 | 77 | 1011.2 |
| 20260509174819 | 59 | 342 | 2.0 | 10.0 | 0.00 | 0.00 | 0.00 | 77 | 1011.1 |
| 20260509174317 | 59 | 168 | 1.0 | 10.0 | 0.00 | 0.00 | 0.00 | 76 | 1011.1 |
| 20260509173813 | 59 | 311 | 3.0 | 8.0 | 0.00 | 0.00 | 0.00 | 76 | 1010.9 |
| 20260509173330 | 60 | 324 | 1.0 | 6.0 | 0.00 | 0.00 | 0.00 | 76 | 1010.8 |
| 20260509172826 | 60 | 14 | 1.0 | 7.0 | 0.00 | 0.00 | 0.00 | 75 | 1010.7 |
| 20260509172344 | 61 | 207 | 3.0 | 9.0 | 0.00 | 0.00 | 0.00 | 73 | 1010.7 |
| 20260509171819 | 61 | 306 | 2.0 | 9.0 | 0.00 | 0.00 | 0.00 | 71 | 1010.7 |
| 20260509171336 | 62 | 347 | 3.0 | 7.0 | 0.00 | 0.00 | 0.00 | 71 | 1010.6 |
| 20260509170816 | 61 | 306 | 1.0 | 5.0 | 0.00 | 0.00 | 0.00 | 73 | 1010.6 |
| 20260509170313 | 61 | 15 | 2.0 | 8.0 | 0.00 | 0.00 | 0.00 | 70 | 1010.6 |
| 20260509165828 | 61 | 345 | 2.0 | 8.0 | 0.00 | 0.00 | 0.00 | 69 | 1010.7 |
| 20260509165326 | 61 | 309 | 0.0 | 4.0 | 0.00 | 0.00 | 0.00 | 69 | 1010.6 |
| 20260509164822 | 61 | 284 | 1.0 | 4.0 | 0.00 | 0.00 | 0.00 | 70 | 1010.6 |
| 20260509164318 | 61 | 327 | 1.0 | 3.0 | 0.00 | 0.00 | 0.00 | 69 | 1010.6 |
| 20260509163814 | 61 | 15 | 0.0 | 3.0 | 0.00 | 0.00 | 0.00 | 69 | 1010.6 |
| 20260509163315 | 61 | 242 | 0.0 | 8.0 | 0.00 | 0.00 | 0.00 | 70 | 1010.8 |
| 20260509162831 | 61 | 49 | 1.0 | 8.0 | 0.00 | 0.00 | 0.00 | 70 | 1010.8 |
| 20260509162327 | 61 | 59 | 0.0 | 5.0 | 0.00 | 0.00 | 0.00 | 71 | 1010.9 |
| 20260509161823 | 61 | 123 | 0.0 | 5.0 | 0.00 | 0.00 | 0.00 | 69 | 1011.0 |
| 20260509161321 | 61 | 174 | 1.0 | 5.0 | 0.00 | 0.00 | 0.00 | 67 | 1011.1 |
| 20260509160837 | 61 | 5 | 0.0 | 5.0 | 0.00 | 0.00 | 0.00 | 69 | 1011.0 |
| 20260509160333 | 61 | 348 | 1.0 | 5.0 | 0.00 | 0.00 | 0.00 | 70 | 1010.8 |
| 20260509155827 | 61 | 210 | 0.0 | 3.0 | 0.00 | 0.00 | 0.00 | 71 | 1011.1 |
| 20260509155327 | 61 | 307 | 0.0 | 4.0 | 0.00 | 0.00 | 0.00 | 69 | 1011.2 |
| 20260509154843 | 61 | 147 | 1.0 | 4.0 | 0.00 | 0.00 | 0.00 | 69 | 1011.4 |
| 20260509154317 | 61 | 103 | 0.0 | 4.0 | 0.00 | 0.00 | 0.00 | 70 | 1011.1 |
| 20260509153814 | 62 | 142 | 0.0 | 3.0 | 0.00 | 0.00 | 0.00 | 70 | 1011.2 |
| 20260509153351 | 61 | 159 | 1.0 | 3.0 | 0.00 | 0.00 | 0.00 | 70 | 1011.2 |
| 20260509152846 | 62 | 69 | 1.0 | 4.0 | 0.00 | 0.00 | 0.00 | 70 | 1011.3 |
| 20260509152323 | 61 | 213 | 1.0 | 4.0 | 0.00 | 0.00 | 0.00 | 72 | 1011.3 |
| 20260509151819 | 61 | 115 | 1.0 | 7.0 | 0.00 | 0.00 | 0.00 | 72 | 1011.1 |
| 20260509151315 | 61 | 56 | 1.0 | 7.0 | 0.00 | 0.00 | 0.00 | 72 | 1011.1 |
| 20260509150816 | 61 | 261 | 2.0 | 6.0 | 0.00 | 0.00 | 0.00 | 72 | 1011.3 |
| 20260509150333 | 61 | 243 | 1.0 | 7.0 | 0.00 | 0.00 | 0.00 | 73 | 1011.4 |
| 20260509145829 | 60 | 235 | 1.0 | 4.0 | 0.00 | 0.00 | 0.00 | 74 | 1011.5 |
| 20260509145326 | 60 | 159 | 0.0 | 5.0 | 0.00 | 0.00 | 0.00 | 74 | 1011.5 |
| 20260509144821 | 60 | 13 | 1.0 | 2.0 | 0.00 | 0.00 | 0.00 | 75 | 1011.5 |
| 20260509144316 | 60 | 9 | 0.0 | 2.0 | 0.00 | 0.00 | 0.00 | 76 | 1011.2 |
| 20260509143813 | 59 | 145 | 0.0 | 2.0 | 0.00 | 0.00 | 0.00 | 75 | 1011.3 |
| 20260509143314 | 60 | 54 | 0.0 | 2.0 | 0.00 | 0.00 | 0.00 | 75 | 1011.4 |
| 20260509142850 | 60 | 126 | 0.0 | 3.0 | 0.00 | 0.00 | 0.00 | 76 | 1011.5 |
| 20260509142348 | 60 | 60 | 0.0 | 3.0 | 0.00 | 0.00 | 0.00 | 75 | 1011.3 |
| 20260509141823 | 60 | 241 | 0.0 | 5.0 | 0.00 | 0.00 | 0.00 | 75 | 1011.1 |
| 20260509141317 | 59 | 153 | 1.0 | 5.0 | 0.00 | 0.00 | 0.00 | 77 | 1011.1 |
| 20260509140814 | 59 | 37 | 2.0 | 3.0 | 0.00 | 0.00 | 0.00 | 77 | 1011.2 |
| 20260509140311 | 59 | 5 | 0.0 | 2.0 | 0.00 | 0.00 | 0.00 | 78 | 1011.2 |
| 20260509135827 | 58 | 77 | 0.0 | 1.0 | 0.00 | 0.00 | 0.00 | 78 | 1011.2 |
| 20260509135323 | 57 | 288 | 0.0 | 0.0 | 0.00 | 0.00 | 0.00 | 80 | 1011.2 |
| 20260509134823 | 56 | 285 | 0.0 | 2.0 | 0.00 | 0.00 | 0.00 | 82 | 1011.3 |
| 20260509134319 | 55 | 50 | 0.0 | 2.0 | 0.00 | 0.00 | 0.00 | 82 | 1011.3 |
| 20260509133816 | 54 | 52 | 0.0 | 1.0 | 0.00 | 0.00 | 0.00 | 83 | 1011.4 |
| 20260509133313 | 54 | 57 | 0.0 | 0.0 | 0.00 | 0.00 | 0.00 | 83 | 1011.4 |
| 20260509132829 | 54 | 57 | 0.0 | 0.0 | 0.00 | 0.00 | 0.00 | 83 | 1011.5 |
| 20260509132326 | 54 | 94 | 0.0 | 1.0 | 0.00 | 0.00 | 0.00 | 84 | 1011.4 |
| 20260509131842 | 53 | 94 | 0.0 | 1.0 | 0.00 | 0.00 | 0.00 | 84 | 1011.4 |
| 20260509131320 | 53 | 102 | 0.0 | 1.0 | 0.00 | 0.00 | 0.00 | 84 | 1011.8 |
| 20260509130817 | 53 | 102 | 0.0 | 0.0 | 0.00 | 0.00 | 0.00 | 84 | 1011.8 |
| 20260509130314 | 53 | 94 | 0.0 | 0.0 | 0.00 | 0.00 | 0.00 | 84 | 1011.8 |
| 20260509125830 | 53 | 95 | 0.0 | 0.0 | 0.00 | 0.01 | 0.00 | 84 | 1011.9 |
| 20260509125328 | 53 | 95 | 0.0 | 0.0 | 0.00 | 0.01 | 0.00 | 84 | 1011.9 |
| 20260509124824 | 52 | 95 | 0.0 | 0.0 | 0.00 | 0.01 | 0.00 | 84 | 1012.0 |
| 20260509124320 | 52 | 67 | 0.0 | 0.0 | 0.00 | 0.01 | 0.00 | 84 | 1011.7 |
| 20260509123837 | 52 | 67 | 0.0 | 0.0 | 0.00 | 0.01 | 0.00 | 84 | 1012.0 |
| 20260509123316 | 52 | 67 | 0.0 | 2.0 | 0.00 | 0.01 | 0.00 | 85 | 1012.0 |
| 20260509122811 | 52 | 79 | 0.0 | 2.0 | 0.00 | 0.01 | 0.00 | 85 | 1012.0 |